SP8AQK-13 Weather Reports


time (UTC)temp
C
wind
direction
speed
KPH
gust
KPH
rain 1hr
cm
rain 24hr
cm
rain mn
cm
humidity
%
barometer
mb
20260504160345 25 0.0 0.0 0.00 0.00 0.00 29 1013.3
20260504150342 25 0.0 0.0 0.00 0.00 0.00 27 1013.6
20260504140340 27 0.0 0.0 0.00 0.00 0.00 24 1014.0
20260504130338 28 0.0 0.0 0.00 0.00 0.00 21 1014.4
20260504110333 27 0.0 0.0 0.00 0.00 0.00 25 1015.7
20260504100331 26 0.0 0.0 0.00 0.00 0.00 29 1016.6
20260504080327 23 0.0 0.0 0.00 0.00 0.00 32 1017.8
20260504070325 21 0.0 0.0 0.00 0.00 0.00 37 1018.0
20260504050320 10 0.0 0.0 0.00 0.00 0.00 82 1019.1
20260504044319 7 0.0 0.0 0.00 0.00 0.00 86 1019.3
20260504042319 6 0.0 0.0 0.00 0.00 0.00 88 1019.2
20260504040318 6 0.0 0.0 0.00 0.00 0.00 91 1019.3
20260504034317 5 0.0 0.0 0.00 0.00 0.00 91 1019.2
20260504032316 5 0.0 0.0 0.00 0.00 0.00 92 1019.4
20260504030316 5 0.0 0.0 0.00 0.00 0.00 89 1019.1
20260504024315 6 0.0 0.0 0.00 0.00 0.00 85 1019.1
20260504022314 7 0.0 0.0 0.00 0.00 0.00 80 1018.9
20260504020313 7 0.0 0.0 0.00 0.00 0.00 76 1018.8
20260504012312 10 0.0 0.0 0.00 0.00 0.00 66 1018.7
20260504010311 10 0.0 0.0 0.00 0.00 0.00 64 1018.7
20260504004311 10 0.0 0.0 0.00 0.00 0.00 64 1018.8
20260504002310 10 0.0 0.0 0.00 0.00 0.00 63 1018.7
20260504000309 11 0.0 0.0 0.00 0.00 0.00 60 1018.7
20260503232308 12 0.0 0.0 0.00 0.00 0.00 57 1018.6
20260503230307 12 0.0 0.0 0.00 0.00 0.00 58 1018.6
20260503224306 12 0.0 0.0 0.00 0.00 0.00 59 1018.7
20260503222305 11 0.0 0.0 0.00 0.00 0.00 61 1018.8
20260503220305 11 0.0 0.0 0.00 0.00 0.00 64 1018.9
20260503214304 11 0.0 0.0 0.00 0.00 0.00 65 1018.8
20260503212305 11 0.0 0.0 0.00 0.00 0.00 64 1018.8
20260503210303 11 0.0 0.0 0.00 0.00 0.00 62 1018.9
20260503204302 11 0.0 0.0 0.00 0.00 0.00 61 1018.8
20260503202301 12 0.0 0.0 0.00 0.00 0.00 60 1018.7
20260503200300 12 0.0 0.0 0.00 0.00 0.00 56 1018.5
20260503194300 12 0.0 0.0 0.00 0.00 0.00 56 1018.6
20260503192259 12 0.0 0.0 0.00 0.00 0.00 58 1018.8
20260503190258 12 0.0 0.0 0.00 0.00 0.00 59 1018.7
20260503184257 13 0.0 0.0 0.00 0.00 0.00 60 1018.7
20260503182257 14 0.0 0.0 0.00 0.00 0.00 57 1018.5
20260503180256 15 0.0 0.0 0.00 0.00 0.00 56 1018.3
20260503172254 18 0.0 0.0 0.00 0.00 0.00 45 1017.7
20260503170254 21 0.0 0.0 0.00 0.00 0.00 37 1017.7